SCP
0 0 0 0 0 0 0 0 0 0 0 0 0 0 0 0 0 0 0 0 0 0 0 0 0 0 0 0 0 0 0 0 0 0 0 0 0 0 0 0 0 0 0
0 0 0 0 0 0 0 0 0 0 0 0 0 0 0 0 0 0 0 0 0 0 0 0 0 0 0 0 0 0 0 0 0 0 0 0 0 0 0 0 0 0 0
0 0 0 0 0 0 0 0 0 0 0 0 0 0 0 0 0 0 0 0 0 0 0 0 0 0 0 0 0 0 0 0 0 0 0 0 0 0 0 0 0 0 0
0 0 0 0 0 0 0 0 0 0 0 0 0 0 0 0 0 0 0 0 0 0 0 0 0 0 0 0 0 0 0 0 0 0 0 0 0 0 0 0 0 0 0
0 0 0 0 0 0 0 0 0 0 0 0 0 0 0 0 0 0 0 0 0 0 0 0 0 0 0 0 0 0 0 0 0 0 0 0 0 0 0 0 0 0 0
0 0 0 0 0 0 0 0 0 0 0 0 0 0 0 0 0 0 0 0 0 0 0 0 0 0 0 0 0 0 0 0 0 0 0 0 0 0 0 0 0 0 0
0 0 0 0 0 0 0 0 0 0 0 0 0 0 0 0 0 0 0 0 0 0 0 0 0 0 0 0 0 0 0 0 0 0 0 0 0 0 0 0 0 0 0
0 0 0 0 0 0 0 0 0 0 0 0 0 0 0 0 0 0 0 0 0 0 0 0 0 0 0 0 0 0 0 0 0 0 0 0 0 0 0 0 0 0 0
0 0 0 0 0 0 0 0 0 0 0 0 0 0 0 0 0 0 0 0 0 0 0 0 0 0 0 0 0 0 0 0 0 0 0 0 0 0 0 0 0 0 0
0 0 0 0 0 0 0 0 0 0 0 0 0 0 0 0 0 0 0 0 0 0 0 0 0 0 0 0 0 0 0 0 0 0 0 0 0 0 0 0 0 0 0
0 0 0 0 0 0 0 0 0 0 0 0 0 0 0 0 0 0 0 0 0 0 0 0 0 0 0 0 0 0 0 0 0 0 0 0 0 0 0 0 0 0 0
0 0 0 0 0 0 0 0 0 0 0 0 0 0 0 0 0 0 0 0 0 0 0 0 0 0 0 0 0 0 0 0 0 0 0 0 0 0 0 0 0 0 0
0 0 0 0 0 0 0 0 0 0 0 0 0 0 0 0 0 0 0 0 0 0 0 0 0 0 0 0 0 0 0 0 0 0 0 0 0 0 0 0 0 0 0
0 0 0 0 0 0 0 0 0 0 0 0 0 0 0 0 0 0 0 0 0 0 0 0 0 0 0 0 0 0 0 0 0 0 0 0 0 0 0 0 0 0 0
0 0 0 0 0 0 0 0 0 0 0 0 0 0 0 0 0 0 0 0 0 0 0 0 0 0 0 0 0 0 0 0 0 0 0 0 0 0 0 0 0 0 0
0 0 0 0 0 0 0 0 0 0 0 0 0 0 0 0 0 0 0 0 0 0 0 0 0 0 0 0 0 0 0 0 0 0 0 0 0 0 0 0 0 0 0
0 0 0 0 0 0 0 0 0 0 0 0 0 0 0 0 0 0 0 0 0 0 0 0 0 0 0 0 0 0 0 0 0 0 0 0 0 0 0 0 0 0 0
0 0 0 0 0 0 0 0 0 0 0 0 0 0 0 0 0 0 0 0 0 0 0 0 0 0 0 0 0 0 0 0 0 0 0 0 0 0 0 0 0 0 0
0 0 0 0 0 0 0 0 0 0 0 0 0 0 0 0 0 0 0 0 0 0 0 0 0 0 0 0 0 0 0 0 0 0 0 0 0 0 0 0 0 0 0
-0 0 0 0 0 0 0 0 0 0 0 0 0 0 0 0 0 0 0 0 0 0 0 0 0 0 0 0 0 0 0 0 0 0 0 0 0 0 0 0 0 0 0
0 0 0 0 0 0 0 0 0 0 0 0 0 0 0 0 0 0 0 0 0 0 0 0 0 0 0 0 0 0 0 0 0 0 0 0 0 0 0 0 0 0 0
0 0 0 0 0 0 0 0 0 0 0 0 0 0 0 0 0 0 0 0 0 0 0 0 0 0 0 0 0 0 0 0 0 0 0 0 0 0 0 0 0 0 0
0 0 0 0 0 0 0 0 0 0 0 0 0 0 0 0 0 0 0 0 0 0 0 0 0 0 0 0 0 0 0 0 0 0 0 0 0 0 0 0 0 0 0
0 0 0 0 0 0 0 0 0 0 0 0 0 0 0 0 0 0 0 0 0 0 0 0 0 0 0 0 0 0 0 0 0 0 0 0 0 0 0 0 0 0 0
0 0 0 0 0 0 0 0 0 0 0 0 0 0 0 0 0 0 0 0 0 0 0 0 0 0 0 0 0 0 0 0 0 0 0 0 0 0 0 0 0 0 0
0 0 0 0 0 0 0 0 0 0 0 0 0 0 0 0 0 0 0 0 0 0 0 0 0 0 0 0 0 0 0 0 0 0 0 0 0 0 0 0 0 0 0
Wind_Speed_500mb
105 105 103 102 100 95 86 84 83 76 69 66 64 66 70 68 64 59 54 57 50 48 44 41 39 36 33 29 28 27 23 20 20 20 20 21 24 25 28 29 32 34 32
98 101 101 101 91 87 86 83 85 76 68 62 54 66 71 69 59 61 59 57 52 50 44 43 41 37 34 33 31 27 26 25 25 26 26 26 27 29 31 33 34 37 35
99 98 90 77 89 95 87 92 82 76 74 73 71 66 73 71 53 59 56 56 51 48 44 44 39 38 36 35 31 29 30 30 32 33 32 32 33 35 36 38 37 38 38
89 92 92 95 95 96 92 88 81 78 82 81 72 68 64 54 56 62 58 58 53 51 48 45 41 38 36 35 33 33 34 36 35 39 37 36 39 42 42 44 45 42 42
75 80 83 86 86 85 85 81 81 83 91 83 65 64 59 56 58 60 62 57 57 53 51 45 41 40 39 38 37 35 37 39 41 43 42 40 42 44 46 48 52 49 47
54 63 69 73 76 76 75 73 79 81 63 63 57 56 59 61 53 57 58 57 57 53 49 43 42 42 41 39 38 38 42 43 44 46 47 45 45 45 45 49 54 53 57
35 42 48 58 65 70 70 63 59 64 65 60 54 56 58 49 55 56 56 56 55 52 47 43 44 44 42 41 41 43 46 44 46 47 49 46 47 46 50 48 51 53 57
24 33 41 49 52 52 53 57 59 53 55 58 59 48 54 57 53 54 55 57 58 52 46 44 45 46 44 43 44 48 47 47 45 47 49 47 49 49 50 52 53 53 57
18 26 33 39 42 44 50 53 57 56 56 57 56 61 56 53 53 56 56 58 56 52 46 48 48 48 44 46 48 50 47 48 45 48 51 51 52 53 51 52 51 54 60
20 23 28 33 35 38 45 47 49 52 52 53 50 50 50 53 55 55 56 56 57 51 47 51 49 45 44 46 50 49 52 45 46 51 54 55 56 53 53 50 48 51 52
21 25 28 28 29 33 37 37 37 39 43 47 51 52 53 53 53 52 55 56 54 47 51 47 43 45 47 51 52 50 50 48 52 53 54 54 52 51 47 49 47 46 49
37 31 33 34 33 41 43 44 44 52 50 53 56 56 55 53 51 53 55 52 49 50 48 43 46 49 53 52 51 50 49 52 50 51 51 48 47 46 41 40 44 45 46
40 44 37 34 40 48 51 52 53 54 55 54 57 57 56 51 54 55 54 52 49 50 49 49 53 53 51 50 49 48 47 46 44 45 43 41 37 34 32 34 36 41 44
42 40 42 38 42 47 47 47 54 57 59 57 59 59 52 53 54 53 56 53 51 56 52 54 52 50 51 44 44 43 40 39 36 35 32 26 23 24 28 31 32 37 47
44 44 40 42 48 48 53 57 56 55 51 51 50 48 53 55 53 50 52 50 51 54 51 48 49 47 43 42 42 40 34 29 26 21 25 25 25 29 30 33 37 40 47
46 39 43 41 47 49 53 57 56 50 48 43 48 48 46 46 42 46 48 50 52 50 47 46 44 43 42 40 34 27 21 20 21 23 24 25 26 27 29 34 39 44 53
43 38 35 37 37 48 56 60 62 59 56 54 53 48 47 43 40 42 43 42 44 44 40 38 37 35 31 28 28 27 23 22 24 26 29 32 36 37 38 41 47 51 52
41 31 28 30 32 36 46 55 58 57 57 54 52 49 43 38 37 36 39 39 34 33 34 34 32 29 26 23 20 19 20 22 21 22 25 29 32 37 38 40 42 45 50
43 31 19 19 22 29 40 48 51 51 48 50 48 44 40 37 34 34 32 29 30 30 26 24 21 18 14 13 12 13 14 15 17 16 18 21 26 30 33 37 42 44 50
36 33 20 15 18 23 32 36 40 40 42 42 36 31 35 37 32 28 28 26 22 20 18 17 14 11 10 9 7 6 7 8 11 15 20 25 29 32 36 40 44 48 50
27 23 25 15 2 15 23 26 27 30 30 24 24 24 23 21 20 20 21 19 17 15 14 13 11 9 7 5 3 1 5 8 11 16 22 27 31 36 41 43 46 48 52
18 20 16 19 17 10 14 13 13 14 17 21 25 26 22 15 16 15 17 16 15 14 14 11 10 9 8 6 2 2 6 11 17 23 28 33 38 42 45 47 49 50 52
13 14 14 12 11 16 21 20 17 16 16 13 9 9 13 14 14 14 14 15 14 15 15 14 12 9 6 3 2 7 13 19 26 30 34 39 43 44 46 50 53 57 58
5 7 6 2 3 7 11 13 12 9 6 7 12 15 16 14 13 13 15 16 17 17 15 13 10 5 2 7 12 17 23 30 35 39 42 43 43 45 50 55 57 58 59
8 8 12 9 6 4 4 6 4 0 6 11 11 11 12 12 15 18 17 17 17 16 14 10 5 2 7 13 18 25 31 36 38 41 41 43 45 49 52 54 54 55 56
12 17 15 10 5 2 3 3 1 7 8 9 10 12 15 18 18 18 17 14 13 11 9 5 4 9 14 20 26 31 35 39 39 41 42 45 48 50 50 52 53 56 59
Wind_Direction_500mb
233 235 236 238 239 240 244 246 245 244 245 245 245 243 242 244 247 233 235 237 234 236 233 231 230 230 232 235 242 247 254 260 268 277 286 298 304 314 316 320 322 323 327
235 236 238 241 243 247 247 248 245 241 242 245 244 244 247 249 238 236 231 237 233 235 233 230 230 231 232 238 244 250 258 261 267 271 282 292 299 304 309 313 315 317 320
232 235 234 241 244 245 242 249 244 242 242 244 240 243 243 248 241 239 232 237 235 235 234 233 232 232 236 241 247 254 259 262 267 273 280 288 295 297 302 304 305 309 311
237 235 237 236 241 241 242 249 246 243 241 239 243 242 250 234 242 233 233 232 230 230 231 230 230 234 238 244 250 255 259 263 269 273 278 286 293 296 297 300 301 306 307
241 241 243 246 245 245 244 245 245 243 241 229 235 241 238 245 238 232 231 230 230 229 229 228 231 236 239 244 251 257 263 267 271 275 279 285 291 293 295 295 298 301 305
238 242 245 247 247 248 247 247 245 241 234 236 233 242 239 235 229 229 229 230 230 230 231 231 233 238 242 247 254 259 263 267 272 276 282 285 289 287 290 293 295 302 305
243 241 240 242 241 240 239 238 231 232 245 237 242 235 231 227 229 228 228 229 231 231 232 231 235 240 243 247 253 259 264 269 271 277 280 284 284 285 286 290 292 297 300
255 249 248 247 248 250 250 245 238 238 251 239 234 231 229 228 227 227 227 228 229 228 230 232 236 241 244 248 253 259 265 271 275 277 279 281 280 281 285 289 290 292 294
259 254 247 246 242 239 236 238 243 238 232 234 231 222 226 229 229 228 225 227 229 230 230 234 240 244 247 251 255 262 267 272 276 277 278 279 279 279 280 286 292 294 296
280 271 253 246 243 243 242 241 239 235 233 234 225 227 231 231 229 227 226 226 228 228 233 238 243 249 251 255 258 264 269 276 272 271 272 274 277 280 284 288 287 291 294
267 268 261 255 249 243 241 238 241 240 234 232 233 232 232 230 228 225 226 227 228 228 235 241 246 249 251 253 259 265 272 271 269 270 272 272 273 278 284 286 286 285 288
269 254 253 255 243 238 235 235 231 238 238 239 237 233 230 226 225 224 225 225 226 231 238 243 245 251 256 262 270 273 272 272 271 272 272 276 279 279 282 279 282 287 287
277 267 249 246 242 234 233 230 231 234 236 237 240 237 231 226 223 222 223 222 225 232 238 243 250 255 263 268 269 271 271 271 271 270 277 285 291 292 290 286 283 283 282
292 273 267 251 236 231 231 232 235 232 231 233 233 235 232 227 224 223 224 222 225 235 240 247 256 263 264 264 265 267 267 268 272 279 287 291 297 292 294 293 291 289 288
303 285 261 249 238 240 233 235 235 234 233 234 237 236 232 228 226 225 227 228 230 239 246 252 256 256 259 262 263 265 268 271 279 282 278 282 287 289 291 289 292 293 294
311 290 267 245 239 233 227 228 219 223 226 225 229 229 232 229 224 226 227 229 235 244 251 250 252 254 257 258 259 262 265 262 265 270 279 288 289 290 293 292 293 297 300
322 300 277 253 238 231 224 219 223 213 212 217 220 226 225 223 225 228 229 232 240 243 243 248 249 248 246 244 246 251 255 267 276 280 287 291 291 295 297 299 299 301 302
326 302 281 262 241 234 224 220 215 217 214 208 212 218 218 221 224 225 229 226 225 232 232 230 230 236 242 248 258 266 268 283 289 292 291 295 298 300 302 301 300 302 304
339 320 290 265 240 231 223 216 213 208 204 202 198 201 213 218 213 213 213 216 218 217 221 226 230 235 251 260 268 276 283 289 294 303 309 310 308 311 311 309 307 308 307
13 352 329 269 213 211 211 209 206 202 197 193 190 191 199 200 196 200 207 207 204 213 225 232 239 246 246 248 257 276 292 305 319 329 329 323 319 317 314 313 310 310 311
15 29 26 19 138 177 188 189 184 178 172 167 169 173 179 180 179 193 203 205 200 203 221 229 229 222 207 184 180 238 311 329 333 332 328 320 320 317 314 315 313 313 314
25 19 44 60 40 79 118 139 152 164 168 165 171 178 178 174 188 192 202 205 205 207 208 195 178 170 171 161 141 345 328 334 334 332 326 322 318 316 317 319 318 319 320
19 25 27 34 76 112 119 118 124 129 136 143 153 180 196 200 199 200 205 205 188 174 162 158 156 157 158 153 44 357 341 333 327 324 323 318 317 320 323 323 324 325 325
295 50 54 36 150 152 140 136 147 156 182 214 208 199 202 200 199 192 184 167 157 151 149 148 143 143 46 3 355 343 333 327 327 324 321 320 324 325 326 326 328 328 328
300 275 279 292 271 215 164 140 123 110 232 220 217 208 200 188 173 160 155 152 148 146 143 140 127 41 349 338 338 331 323 322 322 322 324 324 326 328 329 330 330 330 330
280 293 293 294 301 331 49 33 306 229 222 215 202 181 165 156 152 149 150 151 148 144 133 109 21 342 332 326 325 323 321 321 322 324 328 328 328 329 330 331 334 332 331
Wind_Speed_850mb
105 105 103 102 100 95 86 84 83 76 69 66 64 66 70 68 64 59 54 57 50 48 44 41 39 36 33 29 28 27 23 20 20 20 20 21 24 25 28 29 32 34 32
98 101 101 101 91 87 86 83 85 76 68 62 54 66 71 69 59 61 59 57 52 50 44 43 41 37 34 33 31 27 26 25 25 26 26 26 27 29 31 33 34 37 35
99 98 90 77 89 95 87 92 82 76 74 73 71 66 73 71 53 59 56 56 51 48 44 44 39 38 36 35 31 29 30 30 32 33 32 32 33 35 36 38 37 38 38
89 92 92 95 95 96 92 88 81 78 82 81 72 68 64 54 56 62 58 58 53 51 48 45 41 38 36 35 33 33 34 36 35 39 37 36 39 42 42 44 45 42 42
75 80 83 86 86 85 85 81 81 83 91 83 65 64 59 56 58 60 62 57 57 53 51 45 41 40 39 38 37 35 37 39 41 43 42 40 42 44 46 48 52 49 47
54 63 69 73 76 76 75 73 79 81 63 63 57 56 59 61 53 57 58 57 57 53 49 43 42 42 41 39 38 38 42 43 44 46 47 45 45 45 45 49 54 53 57
35 42 48 58 65 70 70 63 59 64 65 60 54 56 58 49 55 56 56 56 55 52 47 43 44 44 42 41 41 43 46 44 46 47 49 46 47 46 50 48 51 53 57
24 33 41 49 52 52 53 57 59 53 55 58 59 48 54 57 53 54 55 57 58 52 46 44 45 46 44 43 44 48 47 47 45 47 49 47 49 49 50 52 53 53 57
18 26 33 39 42 44 50 53 57 56 56 57 56 61 56 53 53 56 56 58 56 52 46 48 48 48 44 46 48 50 47 48 45 48 51 51 52 53 51 52 51 54 60
20 23 28 33 35 38 45 47 49 52 52 53 50 50 50 53 55 55 56 56 57 51 47 51 49 45 44 46 50 49 52 45 46 51 54 55 56 53 53 50 48 51 52
21 25 28 28 29 33 37 37 37 39 43 47 51 52 53 53 53 52 55 56 54 47 51 47 43 45 47 51 52 50 50 48 52 53 54 54 52 51 47 49 47 46 49
37 31 33 34 33 41 43 44 44 52 50 53 56 56 55 53 51 53 55 52 49 50 48 43 46 49 53 52 51 50 49 52 50 51 51 48 47 46 41 40 44 45 46
40 44 37 34 40 48 51 52 53 54 55 54 57 57 56 51 54 55 54 52 49 50 49 49 53 53 51 50 49 48 47 46 44 45 43 41 37 34 32 34 36 41 44
42 40 42 38 42 47 47 47 54 57 59 57 59 59 52 53 54 53 56 53 51 56 52 54 52 50 51 44 44 43 40 39 36 35 32 26 23 24 28 31 32 37 47
44 44 40 42 48 48 53 57 56 55 51 51 50 48 53 55 53 50 52 50 51 54 51 48 49 47 43 42 42 40 34 29 26 21 25 25 25 29 30 33 37 40 47
46 39 43 41 47 49 53 57 56 50 48 43 48 48 46 46 42 46 48 50 52 50 47 46 44 43 42 40 34 27 21 20 21 23 24 25 26 27 29 34 39 44 53
43 38 35 37 37 48 56 60 62 59 56 54 53 48 47 43 40 42 43 42 44 44 40 38 37 35 31 28 28 27 23 22 24 26 29 32 36 37 38 41 47 51 52
41 31 28 30 32 36 46 55 58 57 57 54 52 49 43 38 37 36 39 39 34 33 34 34 32 29 26 23 20 19 20 22 21 22 25 29 32 37 38 40 42 45 50
43 31 19 19 22 29 40 48 51 51 48 50 48 44 40 37 34 34 32 29 30 30 26 24 21 18 14 13 12 13 14 15 17 16 18 21 26 30 33 37 42 44 50
36 33 20 15 18 23 32 36 40 40 42 42 36 31 35 37 32 28 28 26 22 20 18 17 14 11 10 9 7 6 7 8 11 15 20 25 29 32 36 40 44 48 50
27 23 25 15 2 15 23 26 27 30 30 24 24 24 23 21 20 20 21 19 17 15 14 13 11 9 7 5 3 1 5 8 11 16 22 27 31 36 41 43 46 48 52
18 20 16 19 17 10 14 13 13 14 17 21 25 26 22 15 16 15 17 16 15 14 14 11 10 9 8 6 2 2 6 11 17 23 28 33 38 42 45 47 49 50 52
13 14 14 12 11 16 21 20 17 16 16 13 9 9 13 14 14 14 14 15 14 15 15 14 12 9 6 3 2 7 13 19 26 30 34 39 43 44 46 50 53 57 58
5 7 6 2 3 7 11 13 12 9 6 7 12 15 16 14 13 13 15 16 17 17 15 13 10 5 2 7 12 17 23 30 35 39 42 43 43 45 50 55 57 58 59
8 8 12 9 6 4 4 6 4 0 6 11 11 11 12 12 15 18 17 17 17 16 14 10 5 2 7 13 18 25 31 36 38 41 41 43 45 49 52 54 54 55 56
12 17 15 10 5 2 3 3 1 7 8 9 10 12 15 18 18 18 17 14 13 11 9 5 4 9 14 20 26 31 35 39 39 41 42 45 48 50 50 52 53 56 59
Wind_Direction_850mb
233 235 236 238 239 240 244 246 245 244 245 245 245 243 242 244 247 233 235 237 234 236 233 231 230 230 232 235 242 247 254 260 268 277 286 298 304 314 316 320 322 323 327
235 236 238 241 243 247 247 248 245 241 242 245 244 244 247 249 238 236 231 237 233 235 233 230 230 231 232 238 244 250 258 261 267 271 282 292 299 304 309 313 315 317 320
232 235 234 241 244 245 242 249 244 242 242 244 240 243 243 248 241 239 232 237 235 235 234 233 232 232 236 241 247 254 259 262 267 273 280 288 295 297 302 304 305 309 311
237 235 237 236 241 241 242 249 246 243 241 239 243 242 250 234 242 233 233 232 230 230 231 230 230 234 238 244 250 255 259 263 269 273 278 286 293 296 297 300 301 306 307
241 241 243 246 245 245 244 245 245 243 241 229 235 241 238 245 238 232 231 230 230 229 229 228 231 236 239 244 251 257 263 267 271 275 279 285 291 293 295 295 298 301 305
238 242 245 247 247 248 247 247 245 241 234 236 233 242 239 235 229 229 229 230 230 230 231 231 233 238 242 247 254 259 263 267 272 276 282 285 289 287 290 293 295 302 305
243 241 240 242 241 240 239 238 231 232 245 237 242 235 231 227 229 228 228 229 231 231 232 231 235 240 243 247 253 259 264 269 271 277 280 284 284 285 286 290 292 297 300
255 249 248 247 248 250 250 245 238 238 251 239 234 231 229 228 227 227 227 228 229 228 230 232 236 241 244 248 253 259 265 271 275 277 279 281 280 281 285 289 290 292 294
259 254 247 246 242 239 236 238 243 238 232 234 231 222 226 229 229 228 225 227 229 230 230 234 240 244 247 251 255 262 267 272 276 277 278 279 279 279 280 286 292 294 296
280 271 253 246 243 243 242 241 239 235 233 234 225 227 231 231 229 227 226 226 228 228 233 238 243 249 251 255 258 264 269 276 272 271 272 274 277 280 284 288 287 291 294
267 268 261 255 249 243 241 238 241 240 234 232 233 232 232 230 228 225 226 227 228 228 235 241 246 249 251 253 259 265 272 271 269 270 272 272 273 278 284 286 286 285 288
269 254 253 255 243 238 235 235 231 238 238 239 237 233 230 226 225 224 225 225 226 231 238 243 245 251 256 262 270 273 272 272 271 272 272 276 279 279 282 279 282 287 287
277 267 249 246 242 234 233 230 231 234 236 237 240 237 231 226 223 222 223 222 225 232 238 243 250 255 263 268 269 271 271 271 271 270 277 285 291 292 290 286 283 283 282
292 273 267 251 236 231 231 232 235 232 231 233 233 235 232 227 224 223 224 222 225 235 240 247 256 263 264 264 265 267 267 268 272 279 287 291 297 292 294 293 291 289 288
303 285 261 249 238 240 233 235 235 234 233 234 237 236 232 228 226 225 227 228 230 239 246 252 256 256 259 262 263 265 268 271 279 282 278 282 287 289 291 289 292 293 294
311 290 267 245 239 233 227 228 219 223 226 225 229 229 232 229 224 226 227 229 235 244 251 250 252 254 257 258 259 262 265 262 265 270 279 288 289 290 293 292 293 297 300
322 300 277 253 238 231 224 219 223 213 212 217 220 226 225 223 225 228 229 232 240 243 243 248 249 248 246 244 246 251 255 267 276 280 287 291 291 295 297 299 299 301 302
326 302 281 262 241 234 224 220 215 217 214 208 212 218 218 221 224 225 229 226 225 232 232 230 230 236 242 248 258 266 268 283 289 292 291 295 298 300 302 301 300 302 304
339 320 290 265 240 231 223 216 213 208 204 202 198 201 213 218 213 213 213 216 218 217 221 226 230 235 251 260 268 276 283 289 294 303 309 310 308 311 311 309 307 308 307
13 352 329 269 213 211 211 209 206 202 197 193 190 191 199 200 196 200 207 207 204 213 225 232 239 246 246 248 257 276 292 305 319 329 329 323 319 317 314 313 310 310 311
15 29 26 19 138 177 188 189 184 178 172 167 169 173 179 180 179 193 203 205 200 203 221 229 229 222 207 184 180 238 311 329 333 332 328 320 320 317 314 315 313 313 314
25 19 44 60 40 79 118 139 152 164 168 165 171 178 178 174 188 192 202 205 205 207 208 195 178 170 171 161 141 345 328 334 334 332 326 322 318 316 317 319 318 319 320
19 25 27 34 76 112 119 118 124 129 136 143 153 180 196 200 199 200 205 205 188 174 162 158 156 157 158 153 44 357 341 333 327 324 323 318 317 320 323 323 324 325 325
295 50 54 36 150 152 140 136 147 156 182 214 208 199 202 200 199 192 184 167 157 151 149 148 143 143 46 3 355 343 333 327 327 324 321 320 324 325 326 326 328 328 328
300 275 279 292 271 215 164 140 123 110 232 220 217 208 200 188 173 160 155 152 148 146 143 140 127 41 349 338 338 331 323 322 322 322 324 324 326 328 329 330 330 330 330
280 293 293 294 301 331 49 33 306 229 222 215 202 181 165 156 152 149 150 151 148 144 133 109 21 342 332 326 325 323 321 321 322 324 328 328 328 329 330 331 334 332 331